Regional Weather Roundup
Issued by NWS Kansas City/Pleasant Hill, MO

Home | Current Version | Previous Version | Text Only | Print | Product List | Glossary On
Versions: 1 2 3 4 5 6 7 8 9 10 11 12 13 14 15 16 17 18 19 20 21 22 23 24 25 26 27 28 29 30 31 32 33 34 35 36 37 38 39 40 41 42 43 44 45 46 47 48 49 50
334
ASUS43 KEAX 241710
RWREAX

WEATHER ROUNDUP FOR EASTERN KANSAS AND NORTHWEST MISSOURI
NATIONAL WEATHER SERVICE KANSAS CITY/PLEASANT HILL MO
1100 AM CST TUE JAN 24 2017

KSZ040-057-103>105-MOZ028-029-037-043-241800-
...KANSAS CITY METROPOLITAN AREA...

CITY           SKY/WX    TMP DP  RH WIND       PRES   REMARKS
K.C. INTL      CLOUDY    35  31  85 E21       29.65F FOG     WCI  24
K.C. DOWNTOWN  CLOUDY    37  33  85 E13       29.67F WCI  29
LEES SUMMIT    CLOUDY    37  34  89 E13       29.67F WCI  29
OLATHE - IXD   CLOUDY    38  34  85 E17       29.63F WCI  28
OLATHE - OJC   CLOUDY    39  34  82 E15G23    29.62F WCI  31
LAWRENCE       CLOUDY    41  36  82 E15       29.62F WCI  33

$$

MOZ001>008-011>017-020>025-030>033-038>040-044>046-053-054-241800-
...NORTHERN AND CENTRAL MISSOURI...

CITY           SKY/WX    TMP DP  RH WIND       PRES   REMARKS
ST. JOSEPH     CLOUDY    35  33  92 E20G26    29.68F FOG     WCI  24
MOSBY          CLOUDY    36  34  93 E15G21    29.69F FOG     WCI  26
WARRENSBURG    PTSUNNY   41  34  75 E10       29.70F WCI  35
WHITEMAN AFB   NOT AVBL
CLINTON        CLOUDY    46  37  71 SE14      29.69F
SEDALIA        MOSUNNY   41  36  82 SE16      29.73F WCI  33
WARSAW         NOT AVBL
CHILLICOTHE      N/A     35  32  88 E14G21    29.79F WCI  26
KIRKSVILLE     CLOUDY    33  31  92 E12       29.83S WCI  24

$$

MOZ041-047>049-056>058-063>065-088>090-097-241800-
...EASTERN AND SOUTHERN MISSOURI...

CITY           SKY/WX    TMP DP  RH WIND       PRES   REMARKS
ST. LOUIS INTL MOSUNNY   46  33  60 SE12      29.88F
SPIRIT OF STL  MOSUNNY   44  35  70 E8        29.88S
COLUMBIA       SUNNY     42  35  76 E16G23    29.78F WCI  34
JEFFERSON CITY MOSUNNY   41  34  76 E10       29.80F WCI  35
ROLLA          SUNNY     45  37  73 SE16G22   29.78F
OSAGE BEACH    SUNNY     46  37  71 SE8       29.76F
SPRINGFIELD    MOSUNNY   49  36  61 S24G37    29.68F
BRANSON        PTSUNNY   48  37  66 SE15      29.75F
JOPLIN         MOSUNNY   57  37  47 SE13G25   29.61F
WEST PLAINS    MOSUNNY   47  37  68 SE13G24   29.84F

$$

IAZ060-094-KSZ022-034>040-054-083-096-NEZ052-066-093-241800-
...KANSAS...SOUTHEAST NEBRASKA AND IOWA...

CITY           SKY/WX    TMP DP  RH WIND       PRES   REMARKS
TOPEKA         MOSUNNY   39  33  79 E14       29.58F WCI  31
MANHATTAN      MOSUNNY   41  35  79 E16       29.53F WCI  33
EMPORIA        PTSUNNY   47  36  65 SE13G21   29.52F
CHANUTE        CLOUDY    53  38  56 SE22      29.55F
WICHITA        MOSUNNY   55  40  56 S21       29.47F
OMAHA          CLOUDY    33  27  78 E12G23    29.70F WCI  24
LINCOLN        CLOUDY    33  29  85 E15G22    29.65S WCI  23
FALLS CITY     CLOUDY    34  31  88 E18       29.64F WCI  23
LAMONI         CLOUDY    32  30  92 E9        29.77F WCI  24
DES MOINES     CLOUDY    32  29  88 E9        29.83F WCI  24

$$





USA.gov is the U.S. government's official web portal to all federal, state and local government web resources and services.